Regional Weather Roundup
Issued by NWS Cleveland, OH

Home | Current Version | Previous Version | Text Only | Print | Product List | Glossary Off
Versions: 1 2 3 4 5 6 7 8 9 10 11 12 13 14 15 16 17 18 19 20 21 22 23 24 25 26 27 28 29 30 31 32 33 34 35 36 37 38 39 40 41 42 43 44 45 46 47 48 49 50

000
ASUS41 KCLE 262110
RWRCLE
OHIO REGIONAL WEATHER ROUNDUP
NATIONAL WEATHER SERVICE CLEVELAND, OH
500 PM EDT THU APR 26 2018

NOTE: "FAIR" INDICATES FEW OR NO CLOUDS BELOW 12,000 FEET WITH NO
SIGNIFICANT WEATHER AND/OR OBSTRUCTIONS TO VISIBILITY.

OHZ001>008-015>018-024>027-034-035-043-044-262200-
   NORTHWEST OHIO

CITY           SKY/WX    TMP DP  RH WIND       PRES   REMARKS
DEFIANCE       NOT AVBL
FINDLAY        FAIR      64  40  41 NW7       29.85F
TOLEDO EXPRESS FAIR      62  35  36 VRB7      29.86F
TOLEDO EXEC    FAIR      61  34  36 VRB6      29.87F
LIMA           FAIR      62  39  42 VRB3      29.85F
$$

OHZ009>014-019>023-028>033-038-089-262200-
   NORTHEAST OHIO

CITY           SKY/WX    TMP DP  RH WIND       PRES   REMARKS
CLE-HOPKINS    FAIR      54  38  54 N9        29.91F
CLE-LAKEFRONT  FAIR      47  40  76 N7        29.89F
CUY CO. ARPT   MOSUNNY   52  37  58 NW12      29.90F
LORAIN-ELYRIA  FAIR      55  34  45 NE13      29.88F
ASHTABULA      FAIR      52  35  52 NW9       29.90F
AKRON-CANTON   FAIR      62  35  36 N3        29.86F
WOOSTER        FAIR      61  38  42 NW7       29.86F
MANSFIELD      FAIR      62  41  46 NW9       29.86F
YOUNGSTOWN     FAIR      61  37  41 W6        29.87F
$$

OHZ042-051>053-060>062-070>072-077>081-262200-
  SOUTHWEST OHIO

CITY           SKY/WX    TMP DP  RH WIND       PRES   REMARKS
CINC-COVINGTON PTSUNNY   67  34  29 NW5       29.83F
CINC-LUNKEN    FAIR      67  36  31 CALM      29.83F
HAMILTON       FAIR      68  27  21 CALM      29.84F
DAYTON         PTSUNNY   65  39  38 W5        29.84F
WRIGHT-PAT AFB PTSUNNY   66  40  38 CALM      29.83F
DAYTON GENERAL FAIR      67  31  26 VRB3      29.82F
WILMINGTON     FAIR      73  42  32 CALM      29.83F
$$

OHZ036-037-039>041-045>050-054>059-063>069-073>076-082>088-262200-
  CENTRAL AND SOUTHEAST OHIO

CITY           SKY/WX    TMP DP  RH WIND       PRES   REMARKS
COLUMBUS       CLOUDY    64  39  39 SW5       29.84F
OSU AIRPORT    FAIR      65  42  43 CALM      29.84F
BOLTON FIELD   PTSUNNY   63  45  51 CALM      29.84F
RICKENBACK AFB FAIR      64  43  46 CALM      29.83F
NEWARK         FAIR      64  43  46 SW6       29.84F
MARION         PTSUNNY   62  37  39 CALM      29.86F
LANCASTER      PTSUNNY   64  45  49 VRB6      29.84F
ZANESVILLE     FAIR      62  41  46 E3        29.85F
NEW PHILLY     NOT AVBL
$$




USA.gov is the U.S. government's official web portal to all federal, state and local government web resources and services.